Terug naar catalogus

HULIANWANG DIGUI-165

ActiefCommunicatiePO
NORAD 68657·PAYLOAD·🇨🇳 China

Gelanceerd Apr 8, 2026 vanaf Taiyuan Satellite Launch Center

Loading…

Volgende Passages (komende 24 uur)

TLE

VersSource: Space-Track

Epoch: Sep 14, 2026, 13:38 UTC

1 68657U 26076B   26257.56825704  .00000034  00000-0  45129-4 0  9994
2 68657  86.5048  13.7277 0001256 108.5964 251.5307 13.24409760 21203

Volg HULIANWANG DIGUI-165 in realtime met AllMySat

Download on the App Store